Weather in Marivka

Ukraine / Dnipropetrovsk Region     47°52′35″N   33°50′43″E
temp.,
°C
wind,
m/s
gust,
m/s
humid.,
%
clouds,
%
prec.,
mm/h
press.,
hPa
HPBL,
m
16 may, sun
sun1600:00+14w22723 0.0 101312
03:00+13s11768 0.0 101310
06:00+14nne2274100 0.0 101210
09:00+20ene335748 0.0 1012374
12:00+24ene444564 0.0 10111634
15:00+25ene5540100 0.0 10091977
18:00+24ne3550100 0.0 1007250
21:00+19nne61368100 0.1 1005251
17 may, mon
mon1700:00+17w2496100 9.9 1005224
03:00+16nne4896100 11.4 1003202
06:00+16n369495 0.1 1002151
09:00+21nne117636 0.4 1001671
12:00+21sw3475100 0.2 1002716
15:00+23s576551 0.5 10031176
18:00+22ssw57685 1.1 10031089
21:00+16ssw468898 2.9 1005110
18 may, tue
tue1800:00+14ssw49935 0.1 1006213
03:00+13ssw399334 0.1 1006213
06:00+12sse3593100 0.0 1006156
09:00+17sse57745 0.0 1006669
12:00+20sse796281 0.1 10051520
15:00+16s81283100 1.9 1005923
18:00+16s7118592 0.6 1004891
21:00+13s511880 1.0 1004354
19 may, wed
wed1900:00+11s5119625 0.0 1004334
03:00+10s49962 0.0 1004223
06:00+10sse410935 0.0 1004325
09:00+14sse677895 0.1 1004946
12:00+13sw3491100 0.4 1004514
15:00+16sw677475 0.9 10051073
18:00+15w91283100 0.7 1006622
21:00+12wsw7128562 0.7 1009719
20 may, thu
thu2000:00+12wsw714855 0.0 1011518
03:00+10wsw410920 0.0 1012230
06:00+10wsw37923 0.0 1013167
09:00+16sw456827 0.0 1014585
12:00+21sw57545 0.0 10141567
15:00+23ssw674484 0.3 10132138
18:00+21ssw5848100 0.0 1014581
21:00+16sse486888 0.0 1014136